NAVSTAR 77 (USA 289) (43873 NORAD) Tracking and Keplerian Element Data

This shows tracking and keplerian element data for the satellite.

Feedback or suggestion? Click here.




ElementValue
Catalog43873
NameNAVSTAR 77 (USA 289)
Epoch Orbit67
Epoch Day15.30073705
Epoch Year2019
RAAN199.2381
Inclination55.0014
Eccentricity0.0005396
Argument of Perigee270.3412
Mean Anonmoly89.621
Mean Motion2.00572045
Decay Rate1.16E-06
L11 43873U 18109A 19015.30073705 .00000116 00000-0 00000-0 0 9993
L22 43873 55.0014 199.2381 0005396 270.3412 89.6210 2.00572045 671

Live tracking and technical data element details for NAVSTAR 77 (USA 289) (NORAD 43873). NAVSTAR 77 (USA 289) can be tracked NOW for your location showing map with azimuth and elevation plus other details from your city location.

Track the satellite on the map from your city or location and see movement details for azimuth, elevation, latitude, longitude, range, height, and movement on the map or in text.







IsCatalogInMostPopularTable: catalog: 43873, numindb: 221
Update: records affected: 1



GetName: 43873 NAVSTAR 77 (USA 289)

Hit Count: updated at: Thu, 17 Jan 2019 15:34:47 GMT